Vertical_Velocity
-5 -6 4 2 -3 5 16 -6 23 -39 2 -12 5 13 -0 3 1 11 -3 -10 -0 -1 -3 -0 4 3 -2 4 4 2 4 4 3 0 -1 -2 14 -1 -1 6 -1 4 2 -2
-11 -0 4 0 6 11 4 -2 -3 4 -28 17 -8 -3 -2 9 -3 1 2 -2 -0 -1 -1 -0 -2 3 4 3 3 7 3 4 1 3 0 -8 15 10 3 -8 2 -2 -1 -1
-8 -1 0 -1 0 5 1 3 3 -1 6 2 -2 -5 -5 -4 5 1 -0 -4 1 2 -1 -2 2 3 2 2 -2 -1 1 -2 4 -2 27 5 -0 -4 -8 4 -5 1 -1 1
-10 -8 3 4 -3 1 1 -1 10 1 1 -1 0 5 8 3 -1 -8 -7 2 1 -1 -1 1 5 1 -1 -2 -1 5 -2 22 19 26 -3 -0 -13 -3 3 -1 1 0 1 1
1 1 -15 -7 2 3 -3 -2 5 -3 -1 6 -1 2 1 4 5 8 6 -2 -2 0 -2 1 4 4 5 13 13 13 6 8 -5 -2 0 6 0 2 -0 0 1 1 -1 -4
2 3 1 9 2 1 0 5 -6 -1 -1 2 -0 12 4 2 -2 0 -1 4 8 4 2 4 -2 -4 9 25 31 4 -2 2 6 7 1 -1 2 1 1 2 -2 -4 0 -0
1 0 -13 5 4 0 -0 -4 -2 -3 -9 1 -6 2 4 4 10 2 3 5 9 12 19 12 11 7 -6 -9 -1 1 6 -1 -0 2 1 0 1 1 -2 -4 0 1 -1 -1
2 2 -3 4 -1 -0 1 2 1 -3 -8 -2 -7 -3 4 3 5 4 4 -0 0 1 -1 -2 -2 -1 -2 -3 2 9 3 -1 -0 0 1 -1 -3 -1 0 0 -0 -1 -2 -3
-2 4 3 1 -2 0 2 1 -1 1 0 3 1 -2 -10 -7 -8 -3 3 2 -0 -0 -1 0 2 2 4 5 4 2 -1 -1 -2 -3 -2 -1 -0 -1 -1 -1 -1 -2 -1 -0
-1 3 0 3 0 0 1 2 1 -1 0 1 3 2 4 -2 1 2 -4 -4 -2 -5 -2 0 -1 -1 -4 -4 -3 -3 -2 -2 -1 -1 -1 -1 -1 -1 -1 -1 -1 -0 -0 -0
-3 1 -0 1 2 1 2 0 1 2 -0 1 1 0 -1 2 0 0 1 -1 -1 -1 -1 -1 -0 -2 -1 -3 -3 -2 -2 -2 -2 -2 -1 -1 -1 -2 -1 1 -1 -1 -2 -1
2 -2 1 2 0 -0 0 2 1 0 2 0 -1 -1 1 -0 0 2 2 2 1 1 0 0 -2 -2 -1 -2 -2 -1 -1 -2 -1 -1 -2 -2 -1 1 -0 -3 -2 -1 -1 -0
-1 -1 -1 -1 1 -0 0 0 1 2 1 0 1 2 -2 1 1 1 1 1 -0 0 -0 0 -0 0 -0 -1 -1 -1 -0 -1 -1 -1 -1 -1 -1 -1 -3 -2 2 4 4 0
1 -0 -1 -0 -1 -1 2 -1 1 2 1 -1 0 -0 -1 -6 -4 2 1 1 1 1 1 0 -0 -0 -0 0 1 0 -1 -2 -1 -0 -0 -1 -1 -0 -1 -0 1 1 -2 0
1 -2 0 -1 -2 -1 2 -0 0 2 1 2 -2 1 0 1 3 1 1 1 1 1 0 -0 -0 0 1 1 -0 -1 -1 -0 -0 -0 -1 -1 -0 0 -0 -1 -1 -0 1 1
0 0 0 1 -0 0 -0 0 -0 3 1 1 -2 0 -2 -5 -0 -1 0 -0 -1 -1 -0 0 0 -0 -1 -1 -0 -0 -0 -0 -0 -0 0 0 -0 -1 -1 -0 -1 -2 -1 -2
1 1 3 1 0 -1 2 -1 -9 1 1 -1 -2 2 1 -0 -1 -1 -0 0 0 -0 -1 -0 0 0 0 -0 -1 -1 -1 -1 -1 -0 -1 -2 -2 -2 -1 -1 -1 -1 -2 -3
1 1 2 -1 1 4 -0 -3 4 1 1 -1 -0 1 1 0 0 -0 0 0 -0 -0 0 1 1 -0 -1 -1 -1 -1 -1 -1 -1 -2 -2 -1 -1 -1 -1 -1 -1 -1 0 -0
2 2 3 3 2 -0 5 -1 3 1 -0 -0 0 -0 -0 -0 -1 -1 -1 -1 0 1 1 0 -0 -1 -1 -1 -1 -2 -2 -1 -2 -1 -1 -1 -2 -1 -1 -2 -1 -1 -1 -1
2 -1 -4 0 1 0 -0 -2 3 1 0 1 1 -1 -1 -0 0 0 1 1 1 0 -0 -1 -1 -1 -0 -0 -1 -1 -2 -2 -1 -1 -2 -2 -1 -1 -1 0 -0 -1 -1 -1
6 -1 4 2 1 2 2 -0 3 2 2 0 -1 -2 -0 1 0 0 0 1 0 -0 -1 -1 -1 -0 -1 -1 -1 -2 -2 -2 -1 -1 -0 -0 -1 -1 -1 -0 -1 -3 -1 -0
-3 1 -1 0 2 3 3 1 -0 1 -1 -0 0 1 1 1 1 1 1 0 -1 -0 -1 -1 -1 -1 -1 -0 -0 -1 -1 -1 -0 -1 -1 -2 -1 -0 -1 -1 -2 -1 -1 -0
2 1 1 2 -0 2 3 2 -1 1 2 3 1 1 0 -1 -1 -1 -1 0 0 -1 -1 -1 -1 -0 -0 -1 -1 -1 -0 -0 -1 -1 -1 -0 -0 -1 -1 -1 -1 0 -1 -1
-1 1 2 2 2 1 2 3 2 -0 -2 -2 -1 -1 -0 0 1 0 -0 0 -1 -0 -1 -2 -1 -1 -1 -1 -1 -0 -0 -2 -1 -1 -2 -1 -2 -1 -0 -1 -0 -0 -1 -1
0 -0 1 1 2 0 1 3 4 1 1 0 -0 -1 0 3 2 1 0 -0 -1 -1 -1 -1 -1 -0 -1 -1 -1 -1 -2 -1 -1 -0 -2 -2 -1 0 -1 -0 -1 -0 -1 -1
-1 0 0 1 4 5 3 1 -0 3 2 3 1 1 1 1 0 0 -0 -1 -2 -1 -1 -1 -0 -0 -1 -1 -1 -1 -1 -1 -1 -2 -1 -0 1 0 0 -0 -1 -1 -1 -1
0 -0 2 3 3 2 2 6 4 2 5 1 1 2 1 1 1 -0 -1 -2 -2 -1 -1 -1 -1 -1 -1 -2 -1 -2 -1 -2 -2 -1 -0 -0 1 1 0 -1 -1 -1 -1 -1
Height
3005 3002 3001 2998 2994 2990 2988 2982 2977 2955 2959 2951 2956 2955 2953 2953 2952 2953 2951 2952 2952 2951 2953 2956 2960 2963 2969 2978 2986 2993 2998 3003 3007 3010 3014 3018 3021 3025 3028 3030 3033 3034 3034 3033
2997 2995 2994 2990 2985 2981 2977 2971 2964 2958 2947 2944 2939 2942 2943 2945 2945 2944 2944 2945 2946 2945 2948 2953 2958 2963 2970 2977 2983 2988 2995 2999 3003 3007 3012 3015 3016 3020 3022 3023 3028 3028 3027 3026
2993 2991 2987 2982 2980 2975 2971 2967 2960 2952 2945 2941 2939 2936 2936 2936 2937 2937 2937 2937 2938 2941 2945 2951 2956 2962 2969 2975 2982 2987 2991 2995 3001 3006 3006 3008 3013 3016 3017 3021 3022 3022 3020 3018
2993 2989 2983 2981 2977 2973 2969 2963 2959 2950 2943 2939 2935 2932 2930 2929 2927 2929 2930 2931 2934 2938 2945 2950 2956 2962 2969 2975 2980 2984 2988 2990 2989 2994 3005 3008 3008 3012 3014 3015 3016 3014 3012 3009
2996 2991 2982 2978 2976 2972 2967 2963 2956 2951 2945 2939 2932 2929 2927 2924 2924 2926 2928 2931 2934 2940 2946 2951 2956 2962 2968 2973 2978 2983 2986 2986 2992 2999 3002 3004 3006 3008 3010 3010 3008 3006 3004 3001
2995 2993 2985 2978 2975 2970 2966 2965 2959 2955 2950 2945 2939 2935 2927 2928 2929 2930 2930 2933 2937 2943 2948 2954 2959 2966 2970 2972 2969 2976 2985 2986 2992 2996 3000 3001 3003 3004 3004 3003 3001 2999 2997 2993
2993 2993 2982 2978 2975 2971 2969 2970 2962 2958 2955 2953 2948 2945 2942 2940 2939 2938 2939 2940 2944 2948 2953 2957 2961 2965 2964 2970 2979 2984 2987 2990 2993 2995 2997 2998 2999 2999 2998 2997 2995 2993 2990 2987
2990 2989 2983 2977 2975 2974 2971 2966 2964 2962 2960 2958 2956 2954 2952 2951 2951 2951 2951 2953 2954 2957 2960 2963 2966 2971 2975 2978 2981 2984 2986 2989 2991 2994 2995 2996 2995 2995 2993 2991 2989 2986 2983 2979
2986 2982 2979 2977 2973 2971 2968 2965 2964 2963 2962 2962 2961 2959 2958 2958 2959 2959 2960 2961 2963 2965 2967 2969 2971 2974 2977 2980 2983 2985 2988 2990 2991 2993 2993 2993 2992 2990 2988 2986 2983 2979 2975 2971
2981 2979 2977 2975 2972 2970 2968 2965 2964 2964 2964 2964 2964 2963 2963 2963 2964 2965 2965 2967 2968 2970 2972 2974 2976 2978 2981 2983 2985 2987 2988 2990 2990 2990 2990 2989 2987 2985 2982 2979 2976 2972 2968 2964
2978 2977 2976 2973 2971 2970 2968 2967 2965 2965 2965 2966 2966 2966 2966 2966 2967 2968 2969 2970 2972 2974 2976 2977 2979 2980 2982 2984 2985 2987 2988 2988 2988 2987 2986 2984 2982 2979 2976 2973 2969 2965 2961 2956
2977 2975 2974 2972 2971 2970 2968 2968 2967 2966 2967 2967 2967 2967 2967 2968 2969 2970 2971 2973 2974 2976 2977 2979 2980 2982 2983 2985 2985 2985 2985 2985 2984 2982 2981 2979 2977 2974 2971 2967 2963 2958 2952 2946
2972 2972 2972 2971 2970 2969 2969 2968 2968 2967 2967 2968 2968 2968 2968 2969 2970 2971 2972 2974 2976 2977 2978 2980 2981 2982 2983 2983 2983 2983 2982 2981 2980 2978 2977 2975 2972 2969 2965 2961 2956 2951 2946 2938
2968 2969 2969 2968 2968 2968 2967 2968 2968 2968 2968 2968 2968 2968 2968 2969 2970 2973 2974 2976 2977 2978 2979 2980 2980 2981 2981 2980 2980 2980 2979 2978 2977 2975 2973 2970 2967 2963 2959 2954 2948 2942 2934 2928
2963 2963 2965 2966 2966 2966 2966 2967 2968 2968 2968 2968 2969 2970 2970 2971 2973 2974 2975 2976 2977 2978 2978 2979 2979 2979 2979 2979 2978 2978 2977 2976 2974 2972 2969 2966 2962 2957 2951 2945 2939 2933 2927 2921
2957 2959 2960 2962 2963 2964 2964 2966 2967 2967 2968 2968 2969 2970 2971 2972 2974 2975 2976 2976 2977 2977 2978 2978 2978 2978 2978 2978 2977 2976 2975 2973 2971 2968 2964 2960 2955 2949 2943 2937 2931 2924 2918 2911
2954 2956 2957 2959 2961 2962 2962 2963 2963 2967 2968 2968 2969 2971 2972 2974 2974 2975 2976 2976 2976 2977 2977 2977 2977 2977 2977 2976 2975 2974 2973 2970 2967 2963 2958 2953 2948 2942 2936 2929 2923 2916 2909 2902
2951 2951 2952 2955 2957 2959 2960 2960 2964 2965 2966 2968 2969 2971 2972 2973 2973 2974 2975 2975 2976 2976 2976 2977 2977 2976 2976 2975 2973 2972 2969 2966 2961 2957 2952 2947 2941 2934 2928 2921 2914 2908 2901 2895
2948 2948 2950 2952 2954 2955 2956 2958 2963 2965 2966 2968 2969 2970 2972 2972 2973 2973 2974 2974 2975 2976 2976 2976 2976 2975 2974 2973 2971 2968 2964 2960 2956 2951 2946 2940 2933 2926 2920 2913 2906 2899 2893 2888
2947 2948 2949 2950 2951 2952 2955 2958 2962 2964 2966 2968 2969 2970 2970 2971 2972 2973 2973 2974 2975 2975 2975 2975 2974 2973 2972 2969 2967 2963 2959 2955 2950 2945 2938 2932 2926 2920 2913 2906 2899 2894 2888 2883
2948 2949 2950 2951 2953 2954 2956 2958 2961 2963 2965 2967 2968 2969 2969 2970 2971 2972 2973 2974 2974 2974 2974 2973 2972 2970 2968 2966 2962 2959 2954 2949 2943 2937 2931 2926 2919 2912 2906 2899 2894 2888 2884 2879
2949 2950 2950 2951 2952 2954 2955 2957 2959 2962 2963 2965 2967 2967 2968 2970 2971 2972 2973 2974 2973 2973 2972 2971 2969 2967 2964 2961 2958 2953 2948 2943 2936 2930 2925 2919 2912 2905 2899 2894 2889 2884 2879 2875
2945 2947 2948 2949 2950 2951 2953 2955 2957 2959 2962 2964 2965 2966 2968 2969 2970 2970 2971 2972 2971 2971 2970 2968 2966 2963 2960 2957 2952 2948 2942 2936 2930 2924 2918 2911 2904 2898 2893 2888 2884 2879 2876 2873
2942 2942 2944 2946 2947 2948 2950 2952 2955 2957 2959 2960 2962 2964 2965 2967 2968 2969 2969 2969 2969 2968 2967 2965 2962 2960 2956 2952 2948 2942 2936 2930 2924 2917 2910 2903 2897 2892 2887 2883 2879 2875 2872 2871
2939 2938 2939 2941 2943 2945 2947 2950 2952 2954 2955 2957 2959 2961 2963 2965 2966 2967 2967 2967 2967 2965 2964 2962 2959 2956 2952 2948 2942 2936 2930 2924 2917 2909 2903 2896 2890 2885 2881 2877 2874 2872 2870 2870
2935 2935 2935 2936 2939 2941 2944 2946 2948 2950 2952 2954 2956 2959 2961 2963 2964 2965 2966 2965 2964 2963 2961 2958 2955 2952 2948 2942 2936 2930 2924 2917 2910 2902 2896 2889 2884 2880 2876 2873 2871 2870 2870 2870
2931 2931 2931 2933 2935 2937 2939 2942 2944 2946 2949 2951 2954 2957 2959 2961 2962 2963 2963 2963 2961 2959 2957 2954 2951 2947 2943 2937 2931 2924 2917 2910 2902 2896 2889 2884 2879 2876 2873 2871 2870 2870 2871 2871